[[{"header":{"parameterUnit":"m.s-1","parameterCategory":1,"la1":30.2991,"la2":30.254,"lo1":-89.0895,"lo2":-89.0444,"dy":0.0017,"dx":0.0017,"nx":28,"ny":28,"refTime":"2025-09-03T03:00:00:Z","depth":0,"parameterNumber":2,"parameterNumberName":"U-component_of_WINDS"},"data":[0,0,0,0,0,0,0,0,0,0,0,0,0,0,0,0,0,0,0,0,0,0,0,0,0,0,0,0,0,0,0,0,0,0,0,0,0,0,0,0,0,0,0,0,0,0,0,0,0,0,0,0,0,0,0,0,0,0,1.2448,1.2448,0,1.2431,1.2431,1.2431,1.2426,1.2426,1.2426,1.2426,1.2407,1.2407,1.2406,0,0,0,0,0,0,0,0,0,0,0,0,0,1.2473,1.2473,1.2448,1.2448,1.2447,1.2432,1.2431,1.2431,1.2426,1.2426,1.2426,1.2426,1.2408,1.2407,1.2406,0,0,0,0,0,0,0,0,0,0,0,0,0,1.246,1.2473,1.2448,1.2443,1.2442,1.2432,1.2431,1.2431,1.2426,1.2426,1.2426,1.2426,1.2408,1.2407,1.2406,1.2399,0,0,1.2404,1.2403,0,0,0,0,0,0,0,0,1.2461,1.2459,1.2444,1.2443,1.2442,1.2431,1.2434,1.242,1.2426,1.2432,1.2426,1.2426,1.2415,1.2414,1.241,1.2398,1.2397,1.2404,1.2403,1.2403,1.2402,0,0,0,0,0,0,0,1.2462,1.246,1.2441,1.2444,1.2443,1.2441,1.2439,1.2431,1.2423,1.2431,1.2431,1.2429,1.2415,1.2411,1.241,1.2397,1.2404,1.2403,1.2402,1.2402,1.2378,1.2378,0,0,0,0,0,0,1.2464,1.2461,1.2442,1.2441,1.2452,1.2441,1.2439,1.2434,1.2423,1.2421,1.2429,1.2429,1.2412,1.2411,1.2409,1.24,1.2403,1.2402,1.2401,1.2378,1.2378,1.2378,0,0,0,0,0,0,1.2464,1.2462,1.2442,1.2451,1.2448,1.244,1.2435,1.2434,1.243,1.2421,1.242,1.2427,1.2412,1.241,1.2402,1.2399,1.2402,1.2401,1.2378,1.2378,1.2378,1.2382,0,0,0,0,0,0,1.2465,1.2462,1.246,1.2451,1.2448,1.2436,1.2435,1.2434,1.2429,1.2429,1.2419,1.2417,1.2412,1.2403,1.2401,1.2398,1.24,1.2379,1.2378,1.2378,1.2382,1.2382,1.2382,0,0,0,0,0,1.2466,1.2461,1.246,1.2457,1.2444,1.2436,1.2434,1.2429,1.2429,1.2426,1.242,1.2418,1.24,1.2402,1.24,1.2397,1.2379,1.2378,1.2378,1.2382,1.2382,1.2382,0,0,0,0,0,0,1.2469,1.2459,1.2458,1.245,1.2444,1.2435,1.2431,1.2429,1.2422,1.2422,1.2415,1.2413,1.2405,1.24,1.2402,1.2389,1.2389,1.2388,1.2393,1.2393,1.2392,1.2394,1.2399,0,0,0,0,0,1.2469,1.2463,1.2455,1.2448,1.2445,1.2439,1.2435,1.2431,1.2425,1.2422,1.2415,1.2408,1.2401,1.2397,1.2389,1.2381,1.2379,1.2378,1.2378,1.2378,1.2377,1.2373,1.2372,1.2377,1.2377,1.2377,0,0,1.2468,1.2462,1.2459,1.2449,1.2444,1.2438,1.2436,1.243,1.2425,1.242,1.2412,1.2407,1.2399,1.2391,1.2387,1.2386,1.2375,1.2377,1.2377,1.2377,1.2372,1.2372,1.2372,1.2377,1.2377,1.2377,0,0,1.2464,1.2459,1.2453,1.2448,1.2441,1.2436,1.2435,1.2427,1.2423,1.2415,1.2412,1.2406,1.2394,1.2388,1.2384,1.2378,1.2376,1.2376,1.2376,1.2371,1.2371,1.2371,1.2369,1.2368,1.2376,1.2376,1.2376,0,1.2464,1.2455,1.245,1.2444,1.244,1.2436,1.243,1.2426,1.2416,1.2413,1.2413,1.2398,1.2392,1.2383,1.2382,1.2378,1.2376,1.2377,1.2372,1.2371,1.2371,1.2369,1.2368,1.2376,1.2376,1.2376,1.2376,0,1.2455,1.2449,1.2445,1.2437,1.2433,1.2427,1.2421,1.2417,1.2414,1.241,1.2402,1.2395,1.2386,1.2384,1.2381,1.2374,1.2374,1.2373,1.2373,1.2371,1.2369,1.2368,1.2376,1.2376,1.2376,1.2376,0,0,1.2452,1.2442,1.244,1.2437,1.2429,1.2424,1.2418,1.2411,1.2407,1.2401,1.2396,1.2386,1.2385,1.238,1.2376,1.2373,1.2369,1.2372,1.2371,1.2372,1.2362,1.2363,1.2362,1.2367,1.2367,1.2367,1.2362,0,1.2446,1.2436,1.2432,1.2424,1.2418,1.2415,1.241,1.2404,1.24,1.2395,1.239,1.2383,1.2382,1.238,1.2376,1.237,1.2367,1.2371,1.2362,1.2362,1.2365,1.2361,1.2362,1.2358,1.2362,1.2362,1.2361,0,1.2439,1.2433,1.2425,1.2418,1.2415,1.2411,1.2404,1.2399,1.2393,1.239,1.2385,1.2382,1.2375,1.2376,1.2366,1.2369,1.2365,1.2362,1.2362,1.2361,1.2362,1.236,1.2356,1.2356,1.236,1.236,1.2361,0,1.2438,1.2428,1.2422,1.2419,1.2411,1.2408,1.2404,1.2398,1.2394,1.2388,1.2385,1.2378,1.2374,1.2369,1.2364,1.2364,1.2355,1.2355,1.2353,1.2353,1.2351,1.2351,1.2346,1.2348,1.2348,1.2348,1.2348,0,1.2432,1.2427,1.2421,1.2417,1.2411,1.2407,1.2401,1.2397,1.2392,1.2387,1.2383,1.2379,1.2372,1.2367,1.2363,1.2356,1.2354,1.2352,1.2351,1.2352,1.2352,1.2349,1.2349,1.2348,1.2348,1.2348,1.2348,0,1.243,1.2426,1.2419,1.2412,1.241,1.2406,1.24,1.2396,1.2392,1.2386,1.2384,1.2378,1.2371,1.2366,1.2357,1.2354,1.2347,1.2346,1.235,1.2349,1.2347,1.2347,1.234,1.2339,1.2342,1.2342,1.2342,0,1.2427,1.2423,1.2416,1.2413,1.241,1.2404,1.2401,1.2396,1.2392,1.2385,1.2382,1.2375,1.237,1.2359,1.2354,1.2347,1.2345,1.2344,1.2344,1.2346,1.2346,1.2346,1.2346,1.2343,1.2343,1.2343,1.2343,0,1.2422,1.242,1.2415,1.241,1.2406,1.2401,1.2396,1.2393,1.2388,1.2384,1.2378,1.2373,1.2365,1.2358,1.2351,1.2347,1.2344,1.2343,1.2342,1.2344,1.2346,1.2345,1.235,1.2343,1.2343,1.2343,1.2343,1.2343,1.2419,1.2416,1.2411,1.2405,1.2401,1.2397,1.2393,1.2389,1.2384,1.2377,1.2375,1.2368,1.2362,1.2353,1.2348,1.2343,1.2343,1.2341,1.2341,1.2341,1.2341,1.2347,1.2342,1.2342,1.2342,1.2342,1.2342,0,1.2414,1.2411,1.2406,1.24,1.2396,1.2395,1.2389,1.2386,1.238,1.2375,1.237,1.2363,1.2357,1.2351,1.2345,1.2341,1.234,1.234,1.234,1.2339,1.2342,1.2343,1.2341,1.2341,1.2341,1.2341,1.2341,1.2341,1.2411,1.2405,1.2403,1.2396,1.2392,1.2387,1.2384,1.238,1.2376,1.2368,1.2363,1.236,1.2355,1.2348,1.2342,1.234,1.2338,1.2338,1.2336,1.2339,1.2339,1.2339,1.234,1.2338,1.2338,1.2334,1.2334,1.2334]},{"header":{"parameterUnit":"m.s-1","parameterCategory":1,"la1":30.2991,"la2":30.254,"lo1":-89.0895,"lo2":-89.0444,"dy":0.0017,"dx":0.0017,"nx":28,"ny":28,"refTime":"2025-09-03T03:00:00:Z","depth":0,"parameterNumber":3,"parameterNumberName":"V-component_of_WINDS"},"data":[0,0,0,0,0,0,0,0,0,0,0,0,0,0,0,0,0,0,0,0,0,0,0,0,0,0,0,0,0,0,0,0,0,0,0,0,0,0,0,0,0,0,0,0,0,0,0,0,0,0,0,0,0,0,0,0,0,0,-0.8533,-0.8534,0,-0.8566,-0.8566,-0.8566,-0.855,-0.8549,-0.8549,-0.8548,-0.8581,-0.8582,-0.8584,0,0,0,0,0,0,0,0,0,0,0,0,0,-0.8458,-0.846,-0.8533,-0.8534,-0.8534,-0.8566,-0.8566,-0.8566,-0.855,-0.8549,-0.8548,-0.8547,-0.858,-0.8582,-0.8584,0,0,0,0,0,0,0,0,0,0,0,0,0,-0.8491,-0.846,-0.8533,-0.853,-0.853,-0.8565,-0.8566,-0.8567,-0.8551,-0.8549,-0.8548,-0.8547,-0.8579,-0.8582,-0.8584,-0.8625,0,0,-0.8592,-0.8593,0,0,0,0,0,0,0,0,-0.8489,-0.8493,-0.853,-0.853,-0.853,-0.8553,-0.8551,-0.8586,-0.8551,-0.8543,-0.8548,-0.8546,-0.8572,-0.8575,-0.8584,-0.8626,-0.8628,-0.8592,-0.8594,-0.8595,-0.8595,0,0,0,0,0,0,0,-0.8487,-0.8492,-0.8546,-0.8531,-0.8531,-0.8527,-0.853,-0.8558,-0.8564,-0.8543,-0.8542,-0.8546,-0.8572,-0.8582,-0.8585,-0.8628,-0.8592,-0.8594,-0.8596,-0.8597,-0.8705,-0.8706,0,0,0,0,0,0,-0.8484,-0.849,-0.8545,-0.8547,-0.8506,-0.8529,-0.8533,-0.8547,-0.8564,-0.8565,-0.8547,-0.8546,-0.8578,-0.8582,-0.8586,-0.8634,-0.8595,-0.8597,-0.8598,-0.8703,-0.8705,-0.8707,0,0,0,0,0,0,-0.8483,-0.849,-0.8544,-0.8518,-0.8525,-0.8532,-0.8548,-0.8548,-0.8558,-0.8567,-0.8568,-0.8556,-0.8577,-0.8582,-0.8615,-0.8635,-0.8598,-0.86,-0.8702,-0.8704,-0.8706,-0.8731,0,0,0,0,0,0,-0.8481,-0.8489,-0.8505,-0.8519,-0.8526,-0.8573,-0.8549,-0.855,-0.8562,-0.856,-0.8575,-0.8577,-0.8577,-0.8612,-0.8618,-0.8638,-0.8602,-0.87,-0.8703,-0.8705,-0.8729,-0.8734,-0.8739,0,0,0,0,0,-0.8478,-0.851,-0.8505,-0.8512,-0.8546,-0.8574,-0.8578,-0.8578,-0.8564,-0.8579,-0.8585,-0.8576,-0.8632,-0.8615,-0.8622,-0.8643,-0.8699,-0.8702,-0.8705,-0.8727,-0.8733,-0.8738,0,0,0,0,0,0,-0.8498,-0.8512,-0.8507,-0.8545,-0.8558,-0.8571,-0.8591,-0.8585,-0.8602,-0.86,-0.8598,-0.8602,-0.8636,-0.8643,-0.8624,-0.8683,-0.8663,-0.8668,-0.8677,-0.8683,-0.8688,-0.8686,-0.8604,0,0,0,0,0,-0.8507,-0.8529,-0.854,-0.8572,-0.8579,-0.8584,-0.8596,-0.8595,-0.8608,-0.8614,-0.8622,-0.8636,-0.8657,-0.867,-0.869,-0.873,-0.8733,-0.8748,-0.8752,-0.8756,-0.876,-0.8782,-0.8789,-0.8717,-0.8717,-0.8717,0,0,-0.8526,-0.8536,-0.855,-0.8576,-0.8587,-0.8609,-0.8589,-0.8613,-0.863,-0.8618,-0.8649,-0.8656,-0.8671,-0.8708,-0.8724,-0.8714,-0.8781,-0.876,-0.8763,-0.8765,-0.8786,-0.8792,-0.8798,-0.8719,-0.8719,-0.8718,0,0,-0.8571,-0.8581,-0.8609,-0.862,-0.8636,-0.8638,-0.8645,-0.8659,-0.8663,-0.8695,-0.8686,-0.8705,-0.8741,-0.8752,-0.8763,-0.8812,-0.8804,-0.8818,-0.8844,-0.8865,-0.887,-0.8875,-0.8893,-0.8899,-0.8822,-0.8822,-0.8822,0,-0.8592,-0.8626,-0.8624,-0.865,-0.8661,-0.8651,-0.868,-0.869,-0.8712,-0.872,-0.8709,-0.8753,-0.8763,-0.8802,-0.8814,-0.8822,-0.883,-0.8817,-0.887,-0.8875,-0.8879,-0.8896,-0.8903,-0.8824,-0.8824,-0.8824,-0.8823,0,-0.8651,-0.8674,-0.8695,-0.8716,-0.873,-0.8757,-0.8759,-0.8774,-0.8771,-0.8775,-0.8807,-0.8818,-0.884,-0.8849,-0.8846,-0.8887,-0.8881,-0.887,-0.885,-0.8888,-0.8904,-0.891,-0.8826,-0.8826,-0.8825,-0.8825,0,0,-0.871,-0.8729,-0.8737,-0.8746,-0.8763,-0.8781,-0.8807,-0.8828,-0.8841,-0.8856,-0.8878,-0.8908,-0.8898,-0.891,-0.8908,-0.8926,-0.8965,-0.8913,-0.8914,-0.8922,-0.9011,-0.9019,-0.9026,-0.896,-0.8961,-0.8962,-0.9009,0,-0.8756,-0.8802,-0.8801,-0.8844,-0.8865,-0.8856,-0.8879,-0.8891,-0.8896,-0.8915,-0.8919,-0.8941,-0.8926,-0.8933,-0.8951,-0.8956,-0.8982,-0.8953,-0.898,-0.8981,-0.8977,-0.9035,-0.9043,-0.9088,-0.9015,-0.9016,-0.9017,0,-0.8817,-0.8834,-0.8878,-0.8892,-0.8901,-0.8921,-0.894,-0.8958,-0.8972,-0.8974,-0.8988,-0.8983,-0.901,-0.8989,-0.9025,-0.9005,-0.9016,-0.902,-0.9022,-0.9025,-0.9002,-0.9039,-0.9102,-0.9109,-0.9027,-0.9026,-0.9025,0,-0.8855,-0.8889,-0.892,-0.8929,-0.8945,-0.896,-0.8967,-0.898,-0.8993,-0.9009,-0.9018,-0.9037,-0.9048,-0.9063,-0.9064,-0.9049,-0.9101,-0.908,-0.9103,-0.9103,-0.9114,-0.9114,-0.918,-0.9121,-0.9121,-0.9121,-0.9121,0,-0.8907,-0.8935,-0.8938,-0.8957,-0.8988,-0.8987,-0.9017,-0.9023,-0.9035,-0.9055,-0.9048,-0.9067,-0.9067,-0.9086,-0.9087,-0.9117,-0.9122,-0.9124,-0.9124,-0.9125,-0.9125,-0.9132,-0.9129,-0.9123,-0.9122,-0.9122,-0.9122,0,-0.8956,-0.8959,-0.8992,-0.9005,-0.9009,-0.9031,-0.9042,-0.906,-0.9064,-0.9089,-0.9095,-0.9101,-0.9123,-0.9125,-0.9151,-0.9152,-0.9188,-0.9185,-0.9183,-0.9183,-0.9206,-0.9204,-0.9279,-0.9289,-0.9224,-0.9225,-0.9225,0,-0.8989,-0.901,-0.9025,-0.9038,-0.9046,-0.9067,-0.908,-0.908,-0.9094,-0.9111,-0.9127,-0.9149,-0.9166,-0.9202,-0.9208,-0.9228,-0.9225,-0.925,-0.9228,-0.9228,-0.9226,-0.9225,-0.9227,-0.9255,-0.9256,-0.9256,-0.9257,0,-0.9047,-0.9048,-0.9067,-0.9086,-0.9102,-0.9117,-0.9131,-0.9142,-0.9144,-0.916,-0.9182,-0.9196,-0.9222,-0.9244,-0.9263,-0.9271,-0.9264,-0.9264,-0.927,-0.9271,-0.927,-0.9271,-0.9195,-0.9262,-0.9261,-0.9261,-0.9261,-0.926,-0.9089,-0.9107,-0.9121,-0.9142,-0.9153,-0.9166,-0.9184,-0.919,-0.9209,-0.9231,-0.9229,-0.9254,-0.9267,-0.9293,-0.9302,-0.9321,-0.9313,-0.9322,-0.9324,-0.9327,-0.9329,-0.9266,-0.9325,-0.9325,-0.9325,-0.9324,-0.9324,0,-0.9147,-0.9155,-0.9175,-0.9195,-0.9212,-0.9204,-0.922,-0.9234,-0.9256,-0.9269,-0.9286,-0.9313,-0.9333,-0.9341,-0.9361,-0.9376,-0.9373,-0.9381,-0.938,-0.9382,-0.9336,-0.9328,-0.9383,-0.9383,-0.9383,-0.9383,-0.9383,-0.9383,-0.918,-0.921,-0.9212,-0.9248,-0.9256,-0.928,-0.929,-0.9302,-0.9313,-0.9342,-0.9359,-0.9364,-0.9375,-0.9396,-0.9415,-0.9417,-0.9424,-0.9434,-0.9434,-0.9391,-0.9385,-0.9379,-0.9372,-0.9435,-0.9435,-0.9479,-0.9479,-0.948]}]]